• In Latvia
  • List of Countries
  • For 7 days
  • Water Temperature
  • Satellite Maps
  • Weather Map
  • Weather Widgets
  • user-avatar
    Login

    Hourly Weather Elbasan

    Today, 25 February, Saturday

    Time Temperature Precipitation Wind Pressure Humidity
    00:00 +8°C° 0.2 mm 3 mps 734 mmHg 89%
    01:00 +9°C° 0 mm 3 mps 734 mmHg 91%
    02:00 +9°C° 0.6 mm 3 mps 734 mmHg 91%
    03:00 +9°C° 0.6 mm 3 mps 734 mmHg 90%
    04:00 +9°C° 0.6 mm 3 mps 734 mmHg 90%
    05:00 +9°C° 1.4 mm 3 mps 734 mmHg 91%
    06:00 +9°C° 1.4 mm 3 mps 734 mmHg 91%
    07:00 +9°C° 0 mm 3 mps 734 mmHg 90%
    08:00 +10°C° 0.8 mm 3 mps 734 mmHg 89%
    09:00 +10°C° 0.8 mm 3 mps 735 mmHg 88%
    10:00 +11°C° 0.8 mm 3 mps 735 mmHg 87%
    11:00 +12°C° 0.8 mm 3 mps 735 mmHg 85%
    12:00 +13°C° 0.8 mm 2 mps 735 mmHg 83%
    13:00 +14°C° 0.8 mm 2 mps 735 mmHg 81%
    14:00 +14°C° 0.2 mm 2 mps 736 mmHg 81%
    15:00 +14°C° 0.2 mm 2 mps 736 mmHg 82%
    16:00 +14°C° 0.2 mm 2 mps 736 mmHg 83%
    17:00 +13°C° 0.1 mm 2 mps 736 mmHg 85%
    18:00 +12°C° 0.1 mm 2 mps 736 mmHg 88%
    19:00 +10°C° 0.1 mm 2 mps 736 mmHg 90%
    20:00 +9°C° 0.1 mm 2 mps 737 mmHg 90%
    21:00 +9°C° 0.1 mm 3 mps 737 mmHg 89%
    22:00 +8°C° 0.1 mm 3 mps 737 mmHg 89%
    23:00 +8°C° 0.1 mm 3 mps 737 mmHg 89%

    Tomorrow, 26 February, Sunday

    Time Temperature Precipitation Wind Pressure Humidity
    00:00 +8°C° 0.1 mm 3 mps 737 mmHg 89%
    01:00 +8°C° 0.1 mm 3 mps 737 mmHg 88%
    02:00 +8°C° 0.1 mm 3 mps 737 mmHg 88%
    03:00 +8°C° 0.1 mm 2 mps 737 mmHg 88%
    04:00 +8°C° 0.1 mm 2 mps 737 mmHg 88%
    05:00 +8°C° 0.1 mm 2 mps 737 mmHg 88%
    06:00 +8°C° 0.1 mm 2 mps 737 mmHg 88%
    07:00 +8°C° 0.1 mm 2 mps 737 mmHg 88%
    08:00 +10°C° 0 mm 2 mps 738 mmHg 83%
    09:00 +13°C° 0 mm 2 mps 738 mmHg 79%
    10:00 +15°C° 0 mm 2 mps 738 mmHg 74%
    11:00 +16°C° 0 mm 2 mps 738 mmHg 70%
    12:00 +18°C° 0 mm 1 mps 738 mmHg 65%
    13:00 +18°C° 0 mm 1 mps 737 mmHg 61%
    14:00 +18°C° 0 mm 1 mps 737 mmHg 65%
    15:00 +16°C° 0 mm 1 mps 737 mmHg 69%
    16:00 +16°C° 0 mm 1 mps 737 mmHg 72%
    17:00 +14°C° 0.1 mm 1 mps 737 mmHg 78%
    18:00 +13°C° 0.1 mm 1 mps 737 mmHg 84%
    19:00 +11°C° 0.1 mm 1 mps 737 mmHg 89%
    20:00 +11°C° 0 mm 1 mps 737 mmHg 90%
    21:00 +11°C° 0 mm 1 mps 737 mmHg 91%
    22:00 +10°C° 0 mm 1 mps 737 mmHg 92%
    23:00 +10°C° 0 mm 1 mps 737 mmHg 92%

    Day after tomorrow, 27 February, Monday

    Time Temperature Precipitation Wind Pressure Humidity
    00:00 +10°C° 0 mm 1 mps 737 mmHg 92%
    01:00 +9°C° 0 mm 1 mps 737 mmHg 93%
    02:00 +9°C° 0 mm 1 mps 736 mmHg 92%
    03:00 +9°C° 0 mm 1 mps 736 mmHg 92%
    04:00 +8°C° 0 mm 1 mps 736 mmHg 92%
    05:00 +9°C° 0 mm 1 mps 736 mmHg 91%
    06:00 +9°C° 0 mm 1 mps 736 mmHg 90%
    07:00 +9°C° 0 mm 1 mps 736 mmHg 89%
    08:00 +11°C° 0 mm 1 mps 736 mmHg 82%
    09:00 +13°C° 0 mm 1 mps 736 mmHg 74%
    10:00 +16°C° 0 mm 1 mps 736 mmHg 67%
    11:00 +16°C° 0 mm 1 mps 736 mmHg 64%
    12:00 +18°C° 0 mm 1 mps 736 mmHg 62%
    13:00 +19°C° 0 mm 1 mps 735 mmHg 59%
    14:00 +18°C° 0 mm 1 mps 735 mmHg 63%
    15:00 +16°C° 0 mm 1 mps 735 mmHg 67%
    16:00 +16°C° 0 mm 1 mps 735 mmHg 70%
    17:00 +14°C° 0 mm 1 mps 735 mmHg 78%
    18:00 +12°C° 0 mm 1 mps 735 mmHg 85%
    19:00 +10°C° 0 mm 0 mps 735 mmHg 92%
    20:00 +10°C° 0 mm 1 mps 736 mmHg 92%
    21:00 +10°C° 0 mm 1 mps 736 mmHg 93%
    22:00 +9°C° 0 mm 1 mps 736 mmHg 93%
    23:00 +9°C° 0 mm 1 mps 736 mmHg 93%

    28 February, Tuesday

    Time Temperature Precipitation Wind Pressure Humidity
    00:00 +9°C° 0 mm 1 mps 736 mmHg 93%
    01:00 +9°C° 0 mm 1 mps 735 mmHg 92%
    02:00 +8°C° 0 mm 1 mps 735 mmHg 92%
    03:00 +8°C° 0 mm 1 mps 735 mmHg 92%
    04:00 +8°C° 0 mm 1 mps 735 mmHg 92%
    05:00 +8°C° 0 mm 1 mps 735 mmHg 91%
    06:00 +8°C° 0 mm 1 mps 735 mmHg 90%
    07:00 +9°C° 0 mm 1 mps 735 mmHg 89%
    08:00 +11°C° 0 mm 1 mps 735 mmHg 80%
    09:00 +13°C° 0 mm 1 mps 735 mmHg 72%
    10:00 +16°C° 0 mm 2 mps 736 mmHg 63%
    11:00 +16°C° 0 mm 2 mps 735 mmHg 63%
    12:00 +16°C° 0 mm 2 mps 735 mmHg 62%
    13:00 +17°C° 0 mm 2 mps 734 mmHg 62%
    14:00 +16°C° 0 mm 2 mps 734 mmHg 65%
    15:00 +16°C° 0 mm 2 mps 734 mmHg 68%
    16:00 +15°C° 0 mm 2 mps 734 mmHg 71%
    17:00 +14°C° 0 mm 2 mps 734 mmHg 79%
    18:00 +12°C° 0 mm 2 mps 734 mmHg 86%
    19:00 +10°C° 0 mm 2 mps 734 mmHg 93%
    20:00 +10°C° 0 mm 2 mps 734 mmHg 94%
    21:00 +10°C° 0 mm 2 mps 734 mmHg 94%
    22:00 +9°C° 0 mm 2 mps 734 mmHg 95%
    23:00 +9°C° 0 mm 2 mps 734 mmHg 95%

    1 March, Wednesday

    Time Temperature Precipitation Wind Pressure Humidity
    00:00 +9°C° 0 mm 3 mps 733 mmHg 95%
    01:00 +8°C° 0 mm 3 mps 733 mmHg 95%
    02:00 +8°C° 0 mm 3 mps 733 mmHg 94%
    03:00 +8°C° 0 mm 3 mps 733 mmHg 94%
    04:00 +8°C° 0 mm 3 mps 732 mmHg 94%
    05:00 +8°C° 0 mm 3 mps 733 mmHg 93%
    06:00 +8°C° 0 mm 3 mps 733 mmHg 93%
    07:00 +8°C° 0 mm 3 mps 733 mmHg 92%
    08:00 +10°C° 0.2 mm 3 mps 733 mmHg 86%
    09:00 +11°C° 0.2 mm 4 mps 733 mmHg 80%
    10:00 +13°C° 0.2 mm 4 mps 733 mmHg 74%
    11:00 +12°C° 0.7 mm 4 mps 733 mmHg 77%
    12:00 +12°C° 0.7 mm 5 mps 733 mmHg 81%
    13:00 +12°C° 0.7 mm 5 mps 733 mmHg 84%
    14:00 +12°C° 0.2 mm 5 mps 733 mmHg 81%
    15:00 +11°C° 0.2 mm 4 mps 734 mmHg 78%
    16:00 +11°C° 0.2 mm 4 mps 734 mmHg 74%
    17:00 +10°C° 0 mm 3 mps 735 mmHg 80%
    18:00 +8°C° 0 mm 2 mps 736 mmHg 85%
    19:00 +8°C° 0 mm 1 mps 736 mmHg 91%
    20:00 +7°C° 0 mm 1 mps 736 mmHg 91%
    21:00 +7°C° 0 mm 1 mps 737 mmHg 90%
    22:00 +7°C° 0 mm 1 mps 737 mmHg 90%
    23:00 +7°C° 0 mm 1 mps 737 mmHg 89%

    2 March, Thursday

    Time Temperature Precipitation Wind Pressure Humidity
    00:00 +7°C° 0 mm 1 mps 737 mmHg 87%
    01:00 +6°C° 0 mm 1 mps 737 mmHg 86%
    02:00 +6°C° 0 mm 1 mps 737 mmHg 85%
    03:00 +6°C° 0 mm 1 mps 737 mmHg 85%
    04:00 +6°C° 0 mm 1 mps 737 mmHg 84%
    05:00 +6°C° 0 mm 1 mps 737 mmHg 82%
    06:00 +7°C° 0 mm 1 mps 737 mmHg 80%
    07:00 +7°C° 0 mm 1 mps 737 mmHg 78%
    08:00 +10°C° 0 mm 1 mps 738 mmHg 68%
    09:00 +12°C° 0 mm 1 mps 738 mmHg 57%
    10:00 +15°C° 0 mm 1 mps 738 mmHg 47%
    11:00 +16°C° 0 mm 1 mps 738 mmHg 44%
    12:00 +18°C° 0 mm 1 mps 737 mmHg 41%
    13:00 +19°C° 0 mm 1 mps 737 mmHg 38%
    14:00 +18°C° 0 mm 1 mps 737 mmHg 43%
    15:00 +18°C° 0 mm 1 mps 737 mmHg 48%
    16:00 +16°C° 0 mm 1 mps 737 mmHg 53%
    17:00 +14°C° 0 mm 1 mps 737 mmHg 59%
    18:00 +11°C° 0 mm 1 mps 737 mmHg 65%
    19:00 +9°C° 0 mm 1 mps 737 mmHg 72%
    20:00 +8°C° 0 mm 0 mps 737 mmHg 72%
    21:00 +7°C° 0 mm 0 mps 737 mmHg 73%
    22:00 +7°C° 0 mm 0 mps 737 mmHg 73%
    23:00 +7°C° 0 mm 0 mps 737 mmHg 74%
    Show more